This is the latest recevied weather packets stored in our database for station/object KF6FPU-15. If no packets are shown the sender has not sent any weather packets the latest 10 day(s).
| Time | Temp. | Humidity | Pressure | Rain* | Wind** | Luminosity | Snow |
|---|---|---|---|---|---|---|---|
| 1788135182 | 33.89° C | 18% | 1009.9 hPa | - | - | - | - |
| 1788134584 | 33.33° C | 18% | 1009.9 hPa | - | - | - | - |
| 1788133982 | 34.44° C | 17% | 1009.9 hPa | - | - | - | - |
| 1788132782 | 36.11° C | 17% | 1010.1 hPa | - | - | - | - |
| 1788132182 | 36.67° C | 17% | 1010.2 hPa | - | - | - | - |
| 1788131582 | 38.33° C | 17% | 1010.2 hPa | - | - | - | - |
| 1788130982 | 38.89° C | 17% | 1010.3 hPa | - | - | - | - |
| 1788130382 | 40° C | 17% | 1010.4 hPa | - | - | - | - |
| 1788129782 | 40.56° C | 17% | 1010.5 hPa | - | - | - | - |
| 1788129182 | 39.44° C | 17% | 1010.6 hPa | - | - | - | - |
| 1788128582 | 38.89° C | 17% | 1010.8 hPa | - | - | - | - |
| 1788127982 | 38.89° C | 17% | 1010.9 hPa | - | - | - | - |
| 1788127382 | 38.89° C | 17% | 1011.4 hPa | - | - | - | - |
| 1788126182 | 38.89° C | 17% | 1011.5 hPa | - | - | - | - |
| 1788125582 | 37.78° C | 17% | 1011.6 hPa | - | - | - | - |
| 1788124982 | 37.78° C | 18% | 1011.7 hPa | - | - | - | - |
| 1788124382 | 38.33° C | 18% | 1011.8 hPa | - | - | - | - |
| 1788123782 | 37.22° C | 18% | 1011.9 hPa | - | - | - | - |
| 1788123182 | 38.33° C | 18% | 1012 hPa | - | - | - | - |
| 1788122582 | 37.78° C | 18% | 1012.2 hPa | - | - | - | - |
| 1788121982 | 37.22° C | 18% | 1012.4 hPa | - | - | - | - |
| 1788121382 | 37.22° C | 18% | 1012.4 hPa | - | - | - | - |
| 1788120782 | 37.22° C | 17% | 1012.5 hPa | - | - | - | - |
| 1788119582 | 39.44° C | 17% | 1012.7 hPa | - | - | - | - |
| 1788118982 | 38.89° C | 17% | 1012.6 hPa | - | - | - | - |
* Rain since midnight (hover to see other rain measurements)
** Current wind speed in m/s (hover to see current wind gust speed)